{"data":{"norad_id":54741,"intl_designator":"2022-170A","name":"GALAXY 35 (G-35)","alt_names":[],"object_type":"PAYLOAD","status":"ACTIVE","operator":null,"country":"ITSO","launch_date":"2022-12-13","launch_site_code":"FRGUI","launch_vehicle":null,"mission":null,"orbit_class":"UNKNOWN","rcs_meters":null,"size_class":null,"mass_kg":null,"dimensions":null,"purposes":["comms"],"wikipedia_slug":null,"has_3d_model":false,"image_url":null,"decayed_at":null,"tle_current":{"epoch":"2026-05-25T03:18:38.663136Z","epoch_age_seconds":59827,"freshness":"FRESH","line1":"1 54741U 22170A   26145.13794749 -.00000164  00000+0  00000+0 0  9995","line2":"2 54741   0.0398 114.6167 0002068 309.1510 135.5164  1.00271756 12663","mean_motion":1.00271756,"eccentricity":0.0002068,"inclination_deg":0.0398,"raan_deg":114.6167,"arg_perigee_deg":309.151,"mean_anomaly_deg":135.5164,"bstar":0,"rev_number":1266,"period_min":1436.0973193688,"perigee_km":35777.883422695,"apogee_km":35795.322759196,"semimajor_km":42164.740090945,"source":"CELESTRAK","updated_at":"2026-05-25T13:38:14.339565Z"}}}